Theta_e
330 330 331 331 331 331 331 330 330 329 328 327 326 325 324 323 319 313 310 310 308 307 306 304 302 301 300 299 299 299 299 300 299 299 298 298 298 298 298 298 298 299 299 299 299 299 298 298 298 298 298 298 298 298 298 298 298 298 298 298 298 297 297 297 297 298 299 299 299 299 299 300 300 300 300 301 302 303 303 303 303 303 303 303 303
330 331 331 331 331 331 330 329 328 327 326 326 325 324 324 321 315 311 310 310 308 305 304 302 301 299 299 299 299 299 299 299 299 298 298 298 298 298 298 298 299 299 299 299 298 298 298 298 298 297 298 298 298 298 298 298 298 298 298 298 297 297 297 297 297 297 298 299 299 299 299 299 300 300 300 300 301 302 303 303 303 302 302 302 302
331 332 331 331 330 329 328 327 326 325 324 324 323 323 322 318 312 310 310 309 307 304 301 300 299 298 298 298 299 299 299 298 298 298 298 298 298 298 298 298 299 298 298 298 298 298 298 297 297 297 297 297 297 298 298 298 298 298 297 297 297 297 297 297 297 297 297 298 298 299 299 299 299 299 299 299 300 300 301 302 302 302 301 301 301
331 330 330 329 328 327 326 325 324 323 323 322 322 321 318 313 310 309 309 307 305 302 300 299 298 298 298 298 298 299 298 298 298 298 298 298 298 298 298 298 298 298 298 298 297 297 297 297 297 297 297 297 297 297 298 298 298 298 297 297 297 297 297 297 297 297 297 298 298 298 298 298 298 298 298 298 299 299 300 300 301 301 301 301 301
330 329 328 327 326 325 324 323 322 321 321 320 319 317 314 310 309 309 307 305 302 300 299 298 298 298 298 298 298 299 298 298 297 298 298 298 298 298 298 298 298 298 297 297 297 297 297 297 297 297 297 297 297 297 297 297 298 297 297 297 297 296 296 297 297 297 297 297 298 298 298 297 297 297 297 297 298 299 299 299 300 300 300 301 301
328 327 326 325 324 323 322 321 319 319 318 317 316 313 311 309 308 307 305 303 300 299 298 297 297 297 298 298 299 298 298 297 298 298 298 298 298 298 298 298 298 297 297 297 297 297 297 297 297 297 297 297 297 297 297 297 297 297 297 296 296 296 296 296 297 297 297 297 297 298 298 297 297 297 297 297 297 298 298 299 299 299 299 300 301
326 325 324 323 322 321 320 318 317 316 315 314 313 311 309 308 307 305 303 300 299 298 297 297 297 297 298 299 298 298 297 297 297 298 297 297 298 298 298 298 297 297 297 297 297 297 297 297 297 297 297 297 297 297 297 297 297 297 296 296 296 296 296 296 296 297 297 297 297 297 297 297 297 297 297 297 297 297 297 298 298 299 298 299 300
324 323 321 320 319 318 318 317 316 315 313 312 310 309 308 307 305 303 300 298 298 297 296 296 297 297 298 298 298 297 297 297 297 297 297 297 297 297 297 297 297 297 297 296 297 297 297 297 297 297 297 296 296 296 296 296 296 297 296 296 296 296 296 296 296 297 297 297 297 297 297 297 297 297 297 297 297 297 297 297 297 298 298 298 299
322 320 319 318 317 317 316 316 315 314 312 310 309 308 307 305 303 301 298 297 297 296 296 296 296 297 298 298 298 297 297 297 297 297 297 297 297 297 297 297 297 296 296 296 296 296 296 296 296 296 296 296 296 296 296 296 296 296 296 296 296 296 296 296 296 296 296 297 297 297 297 297 297 297 297 297 297 297 297 297 297 297 297 298 299
320 319 317 317 316 316 315 315 314 313 311 309 308 307 305 304 301 299 297 297 296 296 296 296 296 297 298 298 298 297 297 297 297 297 297 297 297 296 296 296 296 296 296 296 296 296 296 296 296 296 296 296 296 296 296 296 296 296 296 296 296 295 295 296 296 296 296 296 296 296 296 296 296 296 296 297 297 297 297 297 297 297 296 297 298
318 317 317 316 316 315 314 313 312 311 310 308 307 306 304 302 299 297 297 296 296 296 296 296 296 297 297 298 298 297 297 297 296 296 296 296 296 296 296 296 296 295 295 295 295 295 295 295 295 295 295 295 295 295 295 295 295 295 295 295 295 295 295 295 296 296 296 296 296 296 296 296 297 297 296 296 297 297 297 297 296 296 296 295 296
317 316 316 315 315 314 313 311 310 309 309 308 307 305 304 301 298 297 296 296 296 296 296 296 296 297 298 298 298 297 297 296 296 296 296 296 296 296 296 295 295 295 295 295 295 295 295 295 295 295 295 295 295 295 295 295 295 295 295 295 295 295 295 295 295 296 296 296 296 296 296 296 297 297 296 296 297 297 297 296 296 296 295 295 294
316 316 315 315 314 313 312 311 310 309 309 308 307 305 302 299 297 296 296 296 296 296 296 296 297 297 298 298 298 297 297 296 296 296 296 296 295 295 295 295 295 295 295 295 295 295 295 295 295 295 295 295 295 294 294 294 294 294 294 294 294 294 295 295 295 296 296 295 295 296 296 296 297 297 297 297 297 297 297 296 296 295 295 295 295
316 315 315 314 313 313 312 311 310 310 309 308 306 303 301 299 297 295 296 296 296 296 296 296 297 298 298 298 297 297 297 296 296 296 296 295 295 295 295 295 295 295 295 295 294 294 294 294 294 294 294 294 294 294 294 294 294 294 293 293 293 294 294 294 295 295 295 295 295 295 296 296 297 297 297 297 297 297 297 296 296 295 295 295 295
315 315 314 313 313 312 311 311 310 309 308 306 304 303 302 299 296 295 295 296 295 296 296 296 297 298 298 297 298 298 298 297 297 296 296 295 295 295 295 295 295 294 294 294 294 294 294 294 294 294 294 294 294 294 293 293 293 293 293 293 293 293 294 294 294 295 295 295 295 295 295 296 297 297 298 297 297 298 298 297 296 296 295 296 296
315 314 313 313 312 311 311 310 309 308 306 305 304 303 302 300 296 295 295 295 295 295 296 296 297 298 298 298 298 298 298 298 297 296 296 295 295 295 295 295 294 294 294 294 294 294 294 294 294 294 294 294 293 293 293 293 293 293 293 293 293 293 293 294 294 294 295 294 295 295 295 295 297 297 298 298 298 298 299 298 297 296 296 296 296
314 313 313 312 311 311 310 309 308 307 306 305 305 304 302 300 296 295 295 295 295 295 296 297 297 297 298 298 298 298 297 297 297 296 296 295 295 294 294 294 294 294 294 294 294 294 294 294 294 293 293 293 293 293 293 293 293 293 293 293 293 293 293 293 293 294 294 294 294 295 295 295 296 297 297 298 298 298 298 298 297 297 297 295 295
313 313 312 311 311 310 309 308 308 307 306 306 305 304 302 300 297 295 295 295 295 295 296 297 297 298 298 298 298 297 297 297 297 296 295 295 294 294 294 294 294 294 294 293 293 293 293 293 293 293 293 293 293 293 293 293 293 293 293 293 293 292 292 293 293 293 293 294 294 294 294 294 295 296 297 297 297 298 298 297 297 297 297 296 295
314 313 312 311 311 309 308 308 308 307 307 306 305 303 301 299 297 294 295 295 295 295 296 296 297 298 298 298 298 297 296 296 296 296 295 295 294 294 294 294 294 294 293 293 293 293 293 293 293 293 293 293 293 293 293 293 293 293 293 292 292 292 292 292 293 293 293 293 294 294 294 294 294 295 296 296 297 298 298 298 298 297 296 296 296
314 313 312 311 310 309 307 307 307 307 307 306 304 302 300 299 296 294 294 295 295 295 296 296 297 297 297 297 297 297 296 296 296 296 295 294 294 294 294 294 293 293 293 293 293 293 293 293 293 293 293 293 293 293 292 292 292 292 292 292 292 292 292 292 292 292 292 293 293 294 294 294 294 294 294 295 296 297 297 298 298 297 296 297 297
313 312 311 310 309 307 306 306 306 306 305 304 303 301 300 298 296 294 294 295 295 295 295 296 296 296 296 296 296 296 296 295 295 295 295 294 294 294 294 294 293 293 293 293 293 293 293 293 293 293 293 293 293 292 292 292 292 292 292 292 292 292 292 292 292 292 292 292 293 293 294 294 294 294 294 294 295 296 297 297 298 298 297 297 298
313 311 310 310 308 307 306 305 304 304 303 303 302 300 299 297 296 294 294 295 295 295 295 295 295 295 295 295 295 295 295 295 294 294 294 294 294 294 294 293 293 293 293 293 293 293 293 293 293 293 293 293 293 293 292 292 292 292 292 292 292 292 292 292 292 292 292 292 292 293 293 294 294 294 294 294 294 295 296 297 297 298 298 298 298
312 311 310 309 307 306 305 305 303 303 303 303 301 299 298 297 296 294 294 294 294 294 295 294 294 295 294 294 294 294 294 294 294 294 294 294 294 294 293 293 293 293 293 293 292 292 292 292 292 292 293 293 293 293 292 292 292 292 292 292 292 292 292 292 292 292 292 292 292 292 293 293 294 294 294 294 293 294 295 296 297 297 298 298 299
312 311 310 309 307 306 304 303 302 302 302 302 300 298 296 296 295 294 294 294 294 294 294 294 294 294 294 294 294 294 294 294 294 294 294 294 293 293 293 293 293 293 293 293 292 292 292 292 292 292 292 293 293 293 292 292 293 292 292 292 292 293 293 293 292 292 291 291 291 292 292 293 293 294 294 294 294 293 294 294 295 296 297 297 298
312 311 310 308 306 305 304 303 302 302 302 301 299 297 295 295 295 294 294 294 294 294 294 294 294 294 294 294 294 294 294 294 294 294 294 293 293 293 293 293 293 293 293 293 293 293 293 293 293 293 293 293 293 292 292 293 293 293 293 293 293 293 294 293 293 292 291 291 291 291 292 292 293 293 294 294 294 293 293 293 294 295 296 296 297
312 310 308 306 305 304 303 303 303 303 302 300 298 296 295 294 294 294 294 294 294 294 294 294 293 293 293 294 294 294 293 294 294 293 293 293 293 293 293 293 293 293 293 293 293 293 293 293 293 293 293 293 293 293 293 293 293 293 294 294 294 294 294 294 293 292 291 291 291 291 291 292 292 292 293 293 294 294 293 293 293 294 294 295 296
311 309 307 305 305 304 304 304 304 303 302 300 297 296 295 294 294 294 294 294 294 294 294 294 293 293 294 294 294 294 293 294 294 293 293 293 293 293 293 293 293 293 293 293 293 293 293 293 293 293 293 293 293 293 293 293 294 294 294 295 295 295 294 294 293 293 292 291 291 290 291 291 292 292 292 293 293 294 294 293 293 293 293 294 295
310 308 306 305 305 305 305 305 304 303 302 300 297 295 295 294 294 294 294 294 294 294 294 294 294 294 294 294 294 294 294 294 294 294 293 293 293 293 293 293 293 293 293 293 293 293 293 293 293 293 293 293 293 293 293 294 294 294 295 295 295 295 295 294 294 294 293 292 291 291 291 291 291 291 291 292 293 293 294 294 293 293 293 293 293
309 307 306 306 305 305 305 305 304 303 302 299 297 296 295 294 294 294 294 294 294 294 295 295 294 294 294 294 294 294 294 294 294 294 294 293 293 293 293 293 293 293 293 293 293 293 293 293 293 293 293 293 293 294 294 294 294 294 295 295 295 295 295 295 295 295 294 293 292 291 291 291 291 291 291 291 292 293 293 294 294 293 294 294 293
308 307 306 306 306 305 305 304 303 302 301 299 298 297 297 297 296 295 295 295 296 296 297 297 297 296 295 295 294 294 294 294 294 293 293 293 293 293 293 293 293 293 293 294 294 294 293 293 293 293 294 294 294 294 294 294 295 295 295 295 295 295 295 295 295 294 294 294 293 292 291 291 291 290 290 290 290 291 292 293 294 294 293 294 294
308 307 306 306 306 305 305 304 303 302 300 299 298 298 299 298 297 296 297 298 298 298 299 299 299 298 297 296 295 294 293 293 293 293 293 293 293 293 293 293 293 294 294 294 294 294 294 294 294 293 294 294 294 294 294 295 295 295 295 295 295 295 294 294 294 294 294 294 294 293 293 292 291 290 290 290 290 290 291 292 293 294 293 294 294
308 307 306 306 306 305 304 304 303 301 300 299 298 298 299 299 298 298 300 300 300 300 300 300 300 299 299 298 296 294 293 293 293 293 293 293 293 293 293 293 294 294 294 294 294 294 294 294 294 294 294 294 294 294 294 294 295 294 294 294 294 294 294 293 293 293 293 293 293 293 293 293 292 291 290 290 290 290 290 291 292 294 294 294 294
308 307 306 306 305 305 304 304 303 301 300 299 299 299 299 298 298 299 301 301 301 301 301 300 300 300 299 298 297 295 294 293 293 293 293 293 293 293 293 293 294 294 294 295 295 294 294 294 294 294 294 294 294 294 294 294 294 294 294 293 293 293 293 293 293 292 292 292 292 292 292 292 293 292 292 291 290 290 290 290 291 293 294 294 294
307 307 306 306 305 305 304 304 302 301 299 298 298 298 298 298 299 300 300 300 300 300 300 300 300 299 299 298 297 295 294 293 293 293 293 293 293 293 293 293 294 294 294 295 295 295 294 294 294 294 294 294 294 294 294 294 294 294 293 293 293 293 292 292 292 292 292 292 292 292 292 292 292 292 292 292 291 291 290 290 290 291 293 294 294
306 306 306 306 305 305 304 304 302 299 298 298 297 298 298 299 300 300 299 299 299 300 299 299 299 298 297 296 295 294 293 293 293 293 293 293 292 293 293 293 294 294 295 295 295 295 295 294 294 294 294 294 293 293 293 293 293 293 293 293 292 292 292 292 292 292 292 292 292 292 292 291 291 291 291 291 291 291 290 290 289 290 291 293 293
305 305 306 305 305 305 305 303 300 297 297 297 297 298 299 300 300 299 299 299 299 299 299 299 298 297 295 294 293 293 293 293 293 293 293 293 293 293 293 293 294 294 295 295 295 296 295 295 294 294 294 294 294 294 293 293 293 293 292 292 292 293 293 293 293 292 292 292 292 292 292 291 291 291 291 291 291 291 291 290 290 290 290 291 292
305 305 305 305 305 305 304 302 298 297 296 297 297 299 300 300 299 299 300 300 300 299 299 298 297 295 293 293 293 293 293 293 293 293 293 293 293 293 293 293 294 295 295 295 296 296 295 295 295 295 295 295 295 295 294 295 294 294 292 292 294 295 295 295 295 294 293 293 292 292 292 292 291 291 291 291 291 291 291 291 291 290 290 290 290
304 304 304 304 304 304 302 299 298 297 297 297 298 299 299 299 300 300 300 300 299 299 299 298 296 294 293 293 293 293 293 293 293 293 293 293 293 293 293 293 294 295 295 295 296 295 295 295 295 295 295 295 295 295 296 296 296 294 293 294 296 296 296 296 296 296 295 295 294 294 294 293 293 292 291 291 291 291 291 291 291 291 290 290 290
304 304 304 303 303 302 299 298 297 297 298 299 299 300 299 300 300 300 300 300 300 299 298 296 294 293 293 293 293 293 293 293 293 293 293 294 294 294 294 294 295 296 296 297 296 296 296 296 296 296 296 296 296 296 296 296 296 295 294 295 296 297 297 297 297 297 296 296 296 296 296 295 295 294 293 292 291 291 291 291 291 291 291 291 290
303 303 303 302 301 300 298 297 297 297 298 299 300 300 300 300 300 300 300 299 298 296 295 294 293 293 294 294 294 294 294 295 295 296 296 296 296 296 295 295 295 296 297 297 297 297 297 296 296 296 296 296 297 297 297 297 297 296 296 296 296 297 297 297 297 297 297 296 296 296 296 296 296 296 295 294 293 292 291 291 291 290 290 291 291
302 302 302 301 300 299 298 298 297 298 299 300 300 300 300 300 301 300 298 296 294 293 294 294 294 295 296 297 297 297 297 298 298 298 299 299 298 297 297 296 296 296 296 296 296 297 297 296 296 296 297 297 297 297 297 297 297 297 297 296 296 297 297 297 297 297 297 297 297 296 296 296 297 296 296 296 295 294 293 292 292 291 291 291 291
301 301 302 301 300 299 298 297 298 299 300 300 300 300 300 301 300 297 295 294 293 294 295 297 297 298 298 299 299 299 299 299 299 299 299 299 298 298 297 297 297 296 296 295 296 296 297 297 297 297 297 297 297 297 297 297 297 297 297 297 297 297 297 297 297 297 297 297 297 297 296 296 297 297 296 296 296 295 295 294 293 293 292 291 291
301 301 301 301 300 298 298 298 299 300 300 300 300 301 301 299 297 295 295 296 297 297 298 299 299 299 299 299 299 300 300 299 299 299 299 299 299 298 297 297 297 297 296 296 296 297 297 297 297 297 297 297 297 297 297 297 297 297 297 297 297 297 296 296 297 297 297 297 297 297 297 297 297 297 297 297 296 296 296 295 295 294 294 293 292
301 301 300 300 299 298 298 299 300 300 301 301 301 300 298 297 296 297 299 300 299 299 300 300 300 300 300 299 299 299 299 299 299 299 299 299 299 298 297 297 297 297 297 297 297 297 297 297 297 297 297 297 297 297 297 297 297 297 297 297 297 297 297 296 296 297 297 297 296 296 296 296 296 297 297 297 297 297 296 296 296 296 295 294 294
301 300 300 299 299 299 299 300 301 301 301 301 299 297 297 298 300 301 301 300 300 300 300 300 300 300 300 299 299 299 299 299 299 299 299 299 298 297 297 297 298 297 297 297 297 297 297 297 297 298 298 298 298 298 298 298 298 298 298 298 297 297 297 297 297 297 297 297 297 297 296 296 296 297 297 297 297 297 297 297 297 296 296 296 295
300 300 300 299 299 299 300 301 301 301 300 299 298 299 300 301 302 302 301 301 301 300 300 300 300 300 300 300 300 300 299 299 299 299 298 298 298 297 297 298 297 297 298 298 298 298 298 298 298 298 298 298 298 298 298 298 298 298 298 298 298 298 298 298 297 297 297 297 297 297 297 297 297 297 297 297 297 297 297 297 297 297 296 296 296
300 300 300 300 300 300 300 301 301 301 300 300 300 301 302 302 301 301 301 301 300 300 300 300 300 300 300 300 300 300 300 299 299 298 298 298 298 298 298 298 298 298 297 298 298 298 298 298 298 298 298 298 298 298 298 298 298 298 299 299 299 298 298 298 297 297 297 297 297 297 297 297 297 297 297 297 297 297 297 297 297 297 297 296 296
300 300 300 300 300 300 301 301 301 301 301 302 302 302 302 301 302 302 301 300 300 300 300 300 300 300 300 300 300 300 299 299 299 299 299 298 298 298 298 298 298 298 298 298 298 298 298 298 298 298 298 298 298 298 298 298 299 299 299 299 299 299 298 298 298 298 297 297 297 297 297 297 297 297 297 298 297 297 297 297 297 297 297 297 297
300 300 300 300 300 300 301 301 301 301 302 302 302 302 302 301 301 301 301 301 301 301 301 301 300 300 300 300 300 300 299 299 299 299 299 299 299 299 299 299 299 298 298 298 298 298 298 299 299 299 299 299 298 298 298 299 299 299 299 299 299 299 299 298 298 298 298 298 297 297 297 297 297 297 297 297 297 297 297 297 297 297 297 297 297
300 301 301 300 300 300 301 302 302 302 302 302 302 302 302 302 302 302 301 301 301 301 301 301 301 300 300 300 300 300 299 299 299 299 299 299 299 299 299 299 299 299 299 299 299 299 299 299 299 299 299 298 298 298 299 299 299 299 299 299 299 299 299 299 299 299 298 298 298 298 298 298 297 297 297 297 297 297 297 297 297 297 297 297 297
300 300 301 301 301 301 301 301 302 302 302 302 302 302 301 301 301 301 301 301 301 301 301 300 300 300 300 300 299 299 299 299 299 299 299 299 299 299 299 299 299 299 299 299 299 299 299 299 299 299 299 298 298 299 299 299 299 299 299 299 299 299 299 299 299 299 299 299 298 298 298 298 298 298 298 298 298 297 297 297 297 297 297 297 297
Wind_Speed
23 22 21 21 21 21 21 21 20 19 18 18 17 17 16 15 14 14 14 11 8 7 6 5 3 2 2 1 1 2 3 5 6 7 7 8 9 10 10 10 11 13 13 14 16 16 17 19 21 23 23 24 25 25 26 26 26 27 27 27 28 28 29 28 28 33 37 38 39 41 42 43 44 44 46 46 43 41 39 36 34 32 31 30 28
23 23 22 23 23 22 22 22 21 20 20 19 19 18 17 15 16 16 13 10 8 7 5 4 4 3 2 2 2 3 5 7 8 8 8 9 9 11 11 11 12 13 14 15 17 17 18 20 22 23 23 24 25 25 25 25 25 27 27 27 28 28 28 29 30 33 38 41 41 42 43 43 44 44 45 46 46 45 42 39 37 37 35 34 32
25 25 24 24 23 23 22 21 21 21 20 21 20 19 18 17 17 15 11 9 8 7 6 5 4 4 3 3 4 5 6 8 9 9 9 9 10 12 12 12 12 14 15 16 17 17 19 21 22 23 23 23 24 24 24 24 25 25 26 27 27 27 27 28 30 32 37 41 42 43 44 44 44 45 45 45 46 46 45 44 42 41 40 38 36
26 25 24 24 23 22 21 21 21 21 21 21 20 19 19 18 16 13 10 9 8 8 7 6 5 5 5 5 5 6 7 8 9 10 10 10 11 12 12 12 13 15 16 17 17 18 19 21 21 21 21 22 23 23 23 23 24 25 26 26 27 28 28 28 29 31 34 39 41 41 42 42 42 43 44 46 46 45 45 46 46 45 44 41 39
26 25 24 24 23 22 21 21 21 21 21 21 20 20 20 18 15 11 9 9 8 8 8 7 7 7 6 6 7 7 8 9 10 10 11 11 12 12 13 13 14 15 16 17 17 18 19 20 20 20 21 22 22 22 23 23 24 25 26 27 27 28 28 29 30 31 33 36 40 42 42 41 41 42 43 46 48 47 47 47 46 47 49 46 41
25 24 24 23 22 22 21 21 21 20 20 21 20 20 19 16 14 11 10 9 9 9 8 9 8 8 8 8 8 8 10 10 10 11 12 12 12 12 13 13 14 15 16 17 17 18 19 19 20 20 20 21 22 22 22 23 24 25 26 27 28 28 29 30 31 32 33 35 38 41 43 42 42 44 44 44 46 47 49 50 49 50 52 50 45
24 23 23 22 22 22 21 21 20 19 20 20 20 20 18 15 13 11 10 9 9 9 9 10 9 9 9 9 9 10 11 11 11 12 12 12 11 12 12 13 14 15 15 16 16 17 18 18 18 19 20 21 21 22 22 23 23 25 26 27 27 28 29 30 32 33 34 36 38 40 42 42 42 43 44 44 44 45 46 49 53 54 54 51 49
23 22 22 22 22 22 21 20 19 19 19 21 21 19 16 14 12 11 11 10 10 9 10 10 10 10 10 11 11 12 12 12 12 12 12 12 12 12 13 13 13 14 14 15 15 15 16 16 17 18 18 19 20 20 21 23 23 24 25 26 27 28 29 30 31 33 35 36 38 39 41 42 43 44 46 47 48 48 46 46 49 54 54 52 50
22 22 22 22 21 21 20 20 19 19 20 21 20 18 15 13 11 11 11 10 10 10 10 10 10 11 12 12 13 14 13 13 13 13 12 12 12 12 13 13 13 13 13 13 13 14 14 14 15 16 16 16 17 18 19 21 22 23 24 25 25 27 28 30 31 33 35 36 38 40 42 43 44 46 46 47 47 47 46 45 45 49 53 53 50
23 23 23 21 21 21 21 21 20 21 22 21 19 17 15 13 12 11 11 10 10 11 11 11 11 12 13 14 15 15 15 14 14 13 13 12 12 12 12 12 12 12 12 12 12 12 13 13 14 14 15 15 16 17 18 19 20 21 22 23 24 25 27 28 29 31 34 37 38 40 42 43 44 44 44 45 45 45 44 45 46 48 50 51 51
24 24 23 21 21 21 21 22 23 23 22 21 19 16 14 13 12 11 11 11 11 12 12 12 12 13 13 14 15 16 15 14 14 13 13 13 12 12 12 11 11 11 11 11 12 12 12 13 14 15 15 16 17 18 18 19 19 20 21 21 22 23 25 27 28 30 33 35 37 38 40 41 43 43 43 44 45 44 43 43 44 46 45 45 47
24 23 22 21 20 21 22 24 24 23 22 20 18 15 13 12 12 12 12 12 12 13 13 13 13 14 14 15 16 16 15 14 13 12 12 12 12 11 11 11 10 10 10 11 11 12 12 13 15 16 16 17 18 19 19 19 19 20 21 21 21 22 23 24 26 29 31 34 36 37 38 39 41 42 42 43 44 44 43 42 42 42 41 39 40
24 23 22 20 21 22 24 25 24 23 21 19 17 15 13 13 13 13 13 13 13 14 14 14 14 14 15 15 17 17 16 15 13 12 12 12 11 10 10 10 9 9 9 10 10 11 13 14 15 16 17 18 19 19 20 20 20 21 22 22 23 23 23 24 23 25 29 32 34 36 36 37 39 40 40 41 44 44 43 42 41 40 40 39 39
25 24 22 21 22 23 24 25 24 22 20 19 17 16 14 14 14 14 14 14 14 14 14 15 15 15 16 17 18 18 16 15 13 12 11 10 10 9 8 8 8 8 9 9 10 11 13 14 15 16 17 18 19 20 21 21 21 22 23 24 25 24 24 25 25 24 27 30 32 34 34 35 36 38 39 39 41 43 41 41 40 39 40 40 39
26 24 23 23 24 25 26 25 24 23 21 20 19 17 15 14 15 15 14 14 14 14 15 15 16 17 18 18 18 16 15 14 13 11 10 9 8 8 7 7 7 7 8 9 10 11 12 13 14 15 16 17 19 20 21 22 22 22 24 25 26 26 25 26 26 25 26 28 30 32 34 34 35 37 39 39 39 40 40 39 39 40 43 44 43
26 25 24 24 25 26 26 25 25 24 23 22 20 17 15 14 15 16 16 15 15 15 15 16 17 19 19 17 16 15 15 14 12 11 9 8 7 6 6 6 5 6 7 8 10 10 11 11 13 14 15 17 18 20 21 21 22 22 24 26 27 27 26 26 26 25 25 26 28 30 32 33 35 37 38 39 39 40 40 41 41 43 47 48 48
27 26 25 24 26 27 26 25 25 25 24 22 20 18 15 15 16 16 16 16 16 16 16 17 18 18 18 16 14 14 15 14 12 10 8 7 6 6 5 4 4 5 7 8 9 9 10 10 11 12 14 16 18 19 19 20 21 22 24 25 26 28 28 28 27 27 26 25 26 29 32 34 35 37 38 40 41 42 43 43 43 45 48 49 50
27 26 23 23 26 26 26 26 26 25 24 22 21 18 16 15 16 17 17 16 17 17 18 19 19 17 16 14 12 12 13 13 11 9 8 7 6 5 4 3 3 5 6 6 7 8 8 9 10 11 13 15 17 18 19 20 21 22 24 25 26 28 29 29 30 30 30 29 28 29 32 35 37 38 39 40 41 43 44 43 42 44 45 46 49
24 21 21 24 26 26 26 25 25 25 24 23 21 18 16 16 17 17 17 17 17 18 19 19 19 18 15 14 12 10 10 11 10 8 8 7 6 5 4 2 3 3 3 4 5 6 7 8 9 11 13 14 15 17 18 19 21 22 23 24 26 28 28 29 30 31 32 33 32 32 34 37 39 40 40 41 42 43 43 42 41 41 42 44 47
22 22 24 26 28 28 27 26 25 25 24 23 21 18 16 17 18 19 18 18 17 18 19 19 19 18 16 14 13 11 9 8 9 8 7 7 6 5 3 2 2 1 1 2 3 4 5 6 8 10 12 13 15 17 18 19 20 21 22 24 26 27 27 27 28 30 32 34 34 33 34 37 39 41 42 43 43 43 43 43 41 39 40 42 45
25 27 28 28 29 29 28 26 23 23 23 23 21 19 17 18 19 20 19 19 19 19 19 19 19 18 17 15 14 12 10 8 8 7 7 6 6 4 3 2 1 1 1 1 2 3 4 6 8 9 12 13 15 16 17 18 19 20 21 23 24 24 25 26 27 29 31 33 34 34 35 36 39 42 44 45 45 44 43 43 42 39 39 41 44
27 28 27 27 28 28 27 26 23 22 23 23 21 20 19 18 19 20 20 20 20 20 20 19 19 18 18 16 14 13 12 11 9 8 8 7 6 5 3 2 3 3 2 0 1 3 4 6 8 9 11 13 15 16 17 17 18 19 20 21 21 22 23 25 26 28 30 32 34 36 36 37 39 41 44 45 46 45 43 42 42 40 39 39 41
27 27 27 28 28 27 27 25 22 22 23 23 21 21 20 20 20 20 20 20 20 20 20 19 19 18 18 17 15 14 13 12 11 10 9 8 7 6 4 4 5 4 2 1 1 2 4 6 7 9 11 13 14 15 16 17 18 19 20 20 21 22 23 25 26 28 30 32 34 36 37 37 38 40 42 45 46 46 44 43 42 40 39 38 38
28 27 27 28 28 27 26 24 21 21 23 23 22 22 22 22 22 21 21 21 21 20 20 19 18 18 17 16 16 14 13 13 12 11 10 9 8 6 6 6 6 4 3 2 0 2 4 5 7 9 10 12 13 14 15 16 17 19 19 20 21 23 24 26 27 28 30 31 34 35 36 36 37 38 39 42 44 45 44 43 42 41 40 39 38
29 28 28 28 28 27 25 23 22 21 21 22 23 23 24 24 24 23 22 21 21 20 20 19 17 16 16 16 15 14 13 12 12 11 11 9 8 7 7 7 6 5 4 3 1 2 3 5 7 8 9 11 12 13 14 15 17 18 19 20 22 23 25 27 28 29 30 31 32 33 34 34 36 36 36 38 41 43 44 44 44 43 41 41 40
30 29 29 29 29 27 25 25 23 21 21 22 23 24 24 25 25 24 23 22 21 20 19 19 17 16 16 15 14 14 13 12 12 11 10 9 9 8 8 7 6 5 5 3 1 2 3 5 6 7 9 10 11 12 13 14 16 17 18 20 21 23 25 27 28 29 30 30 30 31 31 32 33 34 35 36 39 41 43 44 46 46 45 44 44
30 29 30 30 29 28 27 27 25 23 22 23 24 24 24 24 25 25 25 24 22 21 20 19 19 18 16 15 14 13 13 12 11 10 10 9 9 9 8 7 6 6 5 3 2 1 2 3 5 6 8 9 11 12 13 14 14 16 18 19 21 23 25 26 27 28 28 29 29 29 30 30 31 33 35 36 38 39 40 42 44 47 48 48 47
30 30 30 30 29 29 28 27 26 24 24 24 25 26 25 25 25 25 24 24 23 22 21 20 19 18 16 15 14 13 12 12 11 10 9 9 9 9 8 7 7 6 5 4 2 1 1 3 4 5 6 7 9 10 11 13 14 15 17 19 20 22 23 24 26 27 27 28 28 28 29 30 31 32 34 35 36 37 38 39 41 43 46 48 49
30 31 31 30 30 30 29 27 26 25 25 26 26 26 25 25 24 23 22 22 20 19 18 18 17 16 15 13 12 12 12 11 10 9 9 9 9 9 8 7 7 6 6 5 3 2 1 2 3 4 5 6 8 9 10 12 13 14 16 18 19 21 23 24 26 27 27 28 28 29 30 31 31 31 32 33 35 35 36 37 38 39 42 45 48
31 32 31 31 32 31 30 28 26 26 27 28 28 27 26 24 23 23 22 21 19 17 16 14 12 12 12 11 11 11 11 10 9 9 9 9 10 9 8 7 7 7 6 5 4 3 3 3 3 4 5 7 8 10 10 12 13 14 16 17 19 20 22 23 25 25 26 26 27 28 29 30 31 32 32 32 33 34 34 35 35 37 39 41 44
33 33 32 33 33 32 30 29 28 28 29 29 29 28 27 25 24 23 22 20 19 17 15 12 9 8 8 8 9 10 10 10 9 9 9 10 10 9 9 8 8 7 7 6 5 5 5 4 5 5 6 7 8 10 11 12 13 14 16 17 19 20 21 22 23 24 25 25 26 26 27 28 29 30 31 31 31 32 33 33 34 35 36 37 39
33 33 33 33 33 32 30 29 29 29 30 30 30 29 27 26 26 25 23 20 18 17 15 13 11 9 8 8 9 9 9 10 10 10 10 10 10 10 10 9 9 8 8 7 6 6 5 5 5 6 6 7 8 9 11 12 13 14 16 17 19 20 21 22 22 23 23 24 24 25 26 27 27 28 30 30 31 31 32 32 33 33 34 34 35
32 32 33 34 33 32 31 30 30 31 32 32 32 30 28 28 28 26 24 22 19 18 17 15 13 12 11 11 10 10 10 11 11 11 11 10 10 11 11 11 10 10 9 8 7 7 6 5 5 6 7 7 8 10 11 12 13 15 16 17 19 20 21 21 21 21 22 22 23 23 24 25 26 27 28 29 30 30 30 30 31 31 32 32 33
30 31 32 33 33 32 31 30 30 31 32 32 31 30 29 29 28 27 25 24 22 21 20 18 16 14 14 14 13 12 12 12 12 12 12 11 11 12 12 12 11 11 10 9 9 8 7 6 6 6 7 8 9 10 11 12 14 15 16 17 18 19 20 20 21 21 21 21 21 22 23 24 25 26 27 27 28 29 29 29 29 29 29 30 31
31 31 31 31 31 31 31 30 30 31 32 32 30 30 30 30 28 26 25 24 23 22 20 18 17 16 15 15 14 13 13 13 13 13 13 13 13 13 13 13 12 11 11 10 10 9 8 7 7 7 7 8 9 10 12 13 15 16 17 18 19 19 20 20 21 21 21 21 21 21 21 22 23 24 26 26 27 28 28 28 27 27 26 26 27
32 33 32 31 31 30 30 30 30 31 31 31 30 31 31 29 27 25 23 21 20 19 18 17 17 16 16 15 14 14 14 14 14 14 14 14 15 15 14 13 13 12 12 11 10 10 9 8 7 7 8 8 9 11 12 14 16 17 17 18 19 19 20 20 20 21 21 22 22 22 22 22 22 23 24 25 25 26 27 27 26 26 25 24 24
31 32 32 31 31 31 30 30 30 31 30 30 31 31 30 27 25 23 21 20 19 18 17 17 17 17 16 16 15 15 15 15 14 14 14 15 15 15 14 13 13 13 12 11 11 11 9 8 7 7 7 8 9 10 12 14 16 16 16 16 17 18 19 20 21 21 21 22 22 22 23 23 23 23 23 23 24 24 25 25 25 25 25 24 23
29 31 30 30 30 31 30 30 30 31 30 30 31 30 28 25 23 21 21 20 20 19 18 18 18 18 16 15 15 15 15 15 15 14 14 14 13 12 12 12 12 11 11 10 10 10 8 6 6 7 7 7 8 9 11 14 15 15 14 14 15 17 18 19 20 20 21 21 21 22 23 24 24 24 24 24 23 24 24 24 25 25 25 25 24
29 30 29 29 29 29 29 29 30 30 30 31 30 28 26 24 22 22 21 21 20 19 18 18 18 17 15 15 15 15 15 14 13 12 11 10 9 9 10 10 11 10 10 9 9 8 7 6 6 7 7 7 7 8 10 12 14 14 13 13 14 16 17 17 18 19 20 20 20 21 22 23 24 24 24 24 24 24 23 23 24 24 24 24 24
28 28 28 28 28 28 28 28 29 30 31 30 29 26 25 23 22 22 21 21 21 20 19 19 18 16 15 15 14 14 13 11 9 8 7 6 5 6 7 9 10 11 11 10 9 9 8 6 6 6 6 6 6 8 9 10 12 13 13 13 14 15 16 16 17 18 19 19 20 20 21 22 23 24 24 24 24 24 24 23 23 23 23 23 23
25 26 27 26 26 26 27 28 29 30 30 29 27 25 24 23 22 22 22 22 21 21 20 19 17 15 14 14 12 11 11 9 8 7 6 4 4 5 6 8 9 11 12 12 11 10 9 7 6 6 6 6 7 8 10 11 12 13 14 15 16 17 17 18 19 19 20 20 21 21 21 21 22 23 23 24 23 23 23 23 23 23 23 22 22
23 24 25 25 25 25 27 28 29 28 27 27 26 25 24 23 23 23 22 21 21 21 19 18 16 15 15 13 12 12 12 10 10 10 9 7 6 6 7 9 10 12 13 13 12 10 9 8 7 6 6 7 8 10 12 13 14 15 16 17 18 19 20 21 21 21 22 22 23 23 22 21 21 22 23 23 23 23 23 23 23 23 23 22 22
22 22 23 24 24 25 26 28 27 26 26 25 24 23 23 23 23 22 21 20 19 19 18 16 15 15 15 14 14 14 14 13 12 13 12 11 10 9 8 9 10 10 11 11 10 10 9 8 7 6 7 9 11 12 14 15 16 17 19 20 21 22 23 24 24 23 24 25 26 26 25 24 23 22 22 23 23 23 23 23 23 23 23 22 22
22 22 22 23 24 25 26 26 25 24 23 22 22 22 23 23 23 21 20 19 18 17 16 15 15 14 14 15 16 17 16 15 14 14 13 13 12 10 9 9 8 8 8 8 8 8 9 8 7 9 10 12 13 15 16 17 19 20 21 22 23 24 25 25 24 24 25 26 28 29 28 28 26 25 24 23 23 24 24 24 24 24 23 23 23
22 22 22 23 24 26 26 25 22 20 20 21 21 21 22 22 21 20 19 18 17 17 16 15 14 13 13 14 16 17 16 15 15 16 16 15 14 11 10 9 9 8 8 8 8 9 10 10 11 12 13 14 16 17 18 19 20 21 22 23 24 24 24 24 23 24 24 25 27 28 28 29 28 27 27 26 25 25 26 26 25 25 25 24 24
22 23 22 21 23 26 26 23 20 19 19 20 21 22 21 20 20 19 17 16 17 17 17 16 15 15 14 14 15 15 15 15 16 17 17 16 13 11 10 10 10 10 10 10 11 12 13 14 15 16 17 18 19 19 19 20 20 20 20 21 21 22 22 22 22 23 24 25 26 26 27 27 27 26 27 27 27 27 27 27 27 27 26 25 25
23 24 22 20 23 25 25 22 20 19 20 20 21 20 19 19 18 17 16 15 16 16 17 17 17 17 17 16 16 15 14 13 13 13 12 12 11 11 11 12 13 14 14 14 15 16 16 17 18 19 20 20 20 20 20 19 18 18 19 21 20 19 19 19 20 21 22 23 24 25 26 26 27 26 26 26 26 27 27 27 27 27 27 27 26
24 24 21 21 24 26 24 21 20 20 20 21 21 20 19 19 18 17 16 15 15 15 16 16 17 18 18 17 17 15 14 14 13 13 13 13 13 13 14 14 14 14 15 15 16 17 17 18 19 20 20 20 20 19 18 17 16 16 19 21 21 20 20 20 20 21 21 21 22 23 24 25 27 28 28 28 28 27 27 28 28 27 27 27 28
23 21 18 18 22 24 23 21 20 21 21 21 20 20 20 20 19 19 18 17 17 17 17 17 17 18 18 18 17 17 17 17 16 16 15 14 14 13 13 13 13 14 15 16 16 16 17 18 19 20 20 20 19 18 17 16 16 18 20 22 24 24 25 24 24 24 24 23 23 24 25 26 27 28 29 30 30 30 30 30 29 28 28 28 28
21 18 15 15 18 21 22 21 20 20 21 20 19 20 21 21 21 21 20 19 18 18 19 19 19 19 19 20 20 20 20 18 17 15 14 14 13 14 14 15 16 17 18 18 18 19 20 21 21 21 21 21 19 18 18 19 20 22 23 25 26 28 29 29 29 29 29 28 27 26 27 28 29 29 30 31 31 32 32 32 31 31 31 31 30
20 18 16 15 16 19 22 22 21 20 20 20 19 18 19 20 21 22 22 21 19 18 17 17 18 19 19 18 18 17 17 17 16 16 16 16 16 16 17 17 18 18 19 20 21 22 23 23 23 23 23 22 21 20 21 22 24 25 27 28 29 30 31 33 34 34 34 34 33 31 31 31 31 32 32 32 33 34 35 34 34 34 34 34 34
Wind_Direction
199 199 201 204 209 210 212 214 216 220 224 227 233 235 241 244 230 210 198 188 178 177 181 184 189 192 197 190 117 87 64 61 65 67 73 76 74 71 68 63 61 65 68 65 63 58 54 54 53 51 48 44 43 41 39 36 33 33 31 29 30 26 20 14 1 353 358 360 356 356 356 354 353 353 350 348 348 347 345 344 342 340 337 331 324
197 199 202 204 208 211 212 213 215 220 224 228 232 234 239 236 218 204 196 186 175 175 183 187 189 197 201 175 121 96 77 74 81 88 88 84 81 80 75 72 72 73 71 66 63 59 56 55 54 51 46 43 41 38 36 34 31 29 28 25 24 24 18 12 5 356 354 358 358 355 355 354 352 352 351 348 347 346 345 345 344 344 343 339 333
197 201 203 205 209 211 213 214 218 223 226 229 232 234 233 222 207 199 194 186 179 176 180 187 190 189 181 157 121 98 86 88 96 98 92 86 84 85 84 82 79 75 70 67 63 59 57 56 53 49 44 41 39 37 33 31 28 25 24 22 19 18 17 12 6 360 354 356 357 355 354 353 352 351 350 347 346 345 344 344 344 344 344 342 338
202 204 207 210 212 214 216 219 222 225 226 228 229 227 220 208 198 193 188 182 179 178 179 180 180 177 167 145 120 105 99 104 108 102 94 90 89 91 92 87 80 74 70 67 63 59 57 55 51 46 43 39 36 34 30 26 25 22 19 18 16 13 12 10 6 2 357 354 355 355 353 351 350 350 349 347 346 346 344 342 341 343 343 342 340
205 207 211 213 214 216 219 220 221 221 221 222 220 214 206 199 191 185 183 182 179 178 178 174 171 169 157 138 124 116 113 116 116 107 100 98 96 96 95 88 80 75 70 66 62 58 54 51 48 42 38 36 33 29 26 22 19 18 15 13 11 9 7 6 4 3 0 357 355 356 355 351 349 349 348 347 347 346 344 341 340 341 342 342 341
208 211 214 215 216 216 215 213 212 212 213 212 208 203 198 194 187 181 181 183 180 178 176 170 167 165 151 136 130 125 123 123 119 112 108 106 103 99 93 86 79 74 70 65 60 55 51 46 43 39 34 31 28 24 21 18 15 12 11 8 6 5 4 3 3 2 2 1 358 356 356 354 350 349 349 349 348 346 344 341 340 342 343 341 341
211 214 214 214 212 208 205 203 203 205 205 203 200 197 193 189 185 181 178 178 180 179 174 168 165 160 149 138 133 130 129 128 123 118 115 110 106 99 92 86 80 74 69 64 58 52 48 44 39 36 32 26 23 20 16 14 12 9 6 4 2 1 1 2 1 1 2 3 2 359 356 355 352 349 349 350 349 348 345 341 339 342 343 341 340
212 212 209 205 201 198 197 198 200 200 199 196 195 192 189 186 184 180 174 173 176 175 171 169 165 157 149 141 138 136 134 131 125 122 120 114 108 101 94 88 81 76 70 64 59 53 48 43 38 35 30 25 20 17 13 10 8 6 4 1 359 358 360 0 0 2 3 4 4 2 358 357 355 352 351 351 350 348 347 341 337 338 340 340 341
210 206 200 196 194 194 195 196 198 198 195 194 192 190 188 185 181 178 173 170 171 168 167 170 166 157 151 146 143 142 138 133 126 123 121 116 109 102 96 90 85 80 75 69 62 56 49 42 38 34 29 24 21 17 13 8 5 4 2 360 358 358 359 359 0 2 4 6 6 4 1 359 357 355 353 352 350 346 344 341 336 336 338 338 339
206 200 196 194 194 195 196 196 197 196 194 193 192 190 187 182 180 177 171 168 168 166 166 170 168 162 156 151 149 147 143 136 130 126 123 117 110 104 98 93 89 84 80 75 67 59 51 43 37 33 28 25 23 20 16 12 8 5 3 1 359 358 358 359 2 5 6 8 8 6 2 359 358 357 353 351 350 347 343 340 338 337 338 336 337
202 197 195 194 194 195 195 194 194 193 193 192 192 189 184 181 180 176 170 167 168 167 168 171 170 165 160 156 155 154 149 141 135 131 126 120 114 109 103 97 92 86 79 72 64 55 48 40 35 31 28 27 25 23 20 17 13 10 8 6 3 2 360 0 4 7 8 9 9 9 4 360 359 359 354 352 352 349 345 342 340 338 338 336 334
198 196 195 195 195 194 192 191 190 190 191 191 191 188 184 181 178 175 173 171 169 168 169 171 170 165 161 160 161 161 157 147 140 136 129 122 116 111 106 100 91 82 74 65 58 51 42 37 33 28 26 26 25 24 23 21 17 14 13 12 10 8 6 5 7 9 10 10 10 11 7 2 1 1 358 355 354 352 347 344 343 341 339 337 334
197 196 196 198 197 193 191 191 190 189 191 192 192 188 183 181 179 177 175 172 170 169 169 170 169 165 163 163 164 164 160 151 145 139 131 123 117 112 107 101 90 79 71 62 54 47 40 35 31 27 25 25 24 24 23 22 20 17 15 15 15 15 11 9 9 10 12 13 12 12 11 6 4 4 2 360 357 354 350 346 347 346 343 344 342
197 198 198 199 196 192 192 192 191 191 193 194 193 187 182 180 179 178 177 174 173 170 169 170 168 164 163 162 162 162 159 153 147 139 130 123 117 112 106 98 87 74 66 58 50 44 37 32 28 25 24 24 24 24 22 22 21 19 19 18 19 19 14 10 9 10 13 16 15 15 14 11 8 6 7 6 3 359 355 350 351 351 351 353 351
198 199 199 196 193 192 192 191 192 194 194 194 192 186 183 182 179 177 177 174 172 171 170 172 168 164 163 164 163 162 157 150 144 136 129 124 117 112 104 93 82 71 63 55 49 42 34 28 25 23 23 23 24 23 21 21 21 20 22 22 21 21 18 13 12 12 14 17 18 18 17 15 14 11 10 10 7 5 2 358 357 357 359 0 358
198 198 197 194 192 192 192 192 194 195 193 193 192 188 185 183 179 178 177 173 171 172 172 171 168 165 166 168 168 161 151 143 140 137 133 127 119 110 98 87 75 67 59 51 45 40 31 26 22 20 21 24 24 23 21 20 19 20 23 24 23 23 21 18 16 15 16 18 20 20 19 18 17 16 15 13 10 7 5 3 2 3 4 4 1
197 196 195 194 193 193 193 194 195 195 194 194 194 193 189 185 182 181 179 175 172 172 171 169 167 166 167 169 169 159 147 140 139 138 135 129 120 108 96 85 71 61 54 45 39 35 28 23 20 18 20 23 24 23 20 18 18 19 22 23 23 23 22 20 19 17 18 19 19 20 20 20 20 19 19 18 15 12 9 5 3 5 7 6 2
197 196 196 197 196 193 194 196 196 197 198 199 199 198 194 189 185 182 180 179 174 171 169 166 165 167 168 166 166 162 150 143 144 143 136 130 121 115 110 93 72 58 47 38 34 30 24 19 17 17 20 23 22 20 19 17 16 17 19 20 21 21 20 17 16 17 18 19 19 20 21 22 22 22 22 21 19 18 15 10 7 9 9 7 5
198 199 202 202 197 193 194 198 201 202 203 205 205 203 197 190 185 180 179 180 175 170 168 167 165 166 168 166 166 167 158 149 150 148 141 136 132 131 135 108 73 49 36 37 34 27 21 17 16 17 18 19 19 18 17 16 15 15 16 18 20 21 18 15 13 13 15 17 18 20 21 23 24 24 24 23 21 21 21 17 14 13 11 10 10
199 200 202 200 196 195 195 197 203 208 208 208 208 207 200 190 183 179 177 177 175 170 167 168 167 165 167 169 169 171 169 160 157 153 149 148 145 148 150 120 76 19 8 42 37 23 19 16 14 15 16 17 17 15 14 14 14 14 14 17 18 19 17 15 12 12 13 16 18 20 21 22 25 26 26 25 24 23 24 23 20 18 16 15 16
198 200 200 197 195 195 193 191 199 210 212 210 208 206 200 191 183 179 176 175 174 171 168 169 169 167 167 169 170 170 170 169 165 161 160 162 164 167 163 145 171 245 255 65 37 20 17 15 11 11 14 15 15 14 12 13 14 13 15 17 17 16 16 15 15 14 13 14 17 20 22 22 23 26 27 27 26 25 26 27 25 23 22 21 19
200 201 200 198 197 195 193 192 195 204 210 211 209 204 198 190 184 181 178 177 176 174 171 171 171 170 168 168 170 171 169 168 169 167 170 173 177 179 174 182 212 224 218 158 34 17 14 13 9 8 11 13 15 14 12 12 14 15 17 17 16 17 18 18 17 16 15 14 16 19 21 21 22 23 25 26 27 27 28 31 30 27 27 27 26
203 202 201 202 199 195 196 196 193 196 205 211 209 204 195 187 185 184 182 181 180 178 176 175 176 175 172 170 172 174 172 171 171 171 176 180 182 185 190 204 214 214 209 210 14 14 10 10 7 8 10 12 13 14 12 12 15 16 17 17 16 17 19 20 20 19 17 16 16 17 18 20 21 21 22 24 27 28 29 32 34 33 31 30 30
204 204 205 204 199 196 197 197 192 193 202 208 207 201 193 185 184 187 186 186 185 183 180 180 179 179 176 173 174 175 176 176 175 175 177 181 185 191 202 210 213 210 213 224 313 4 2 4 6 9 10 9 11 13 11 11 14 15 15 16 16 16 18 20 22 21 19 18 17 16 15 17 19 20 20 22 25 27 29 31 34 37 38 35 32
204 206 206 203 197 195 196 194 192 194 202 206 204 199 193 187 186 188 188 189 189 187 184 181 180 179 178 176 176 177 177 180 181 179 179 180 185 195 205 208 207 208 216 227 267 344 355 2 5 8 8 6 8 10 9 10 13 13 13 15 15 16 17 19 21 21 20 19 17 15 14 14 15 18 20 20 22 24 28 30 31 34 38 40 39
205 207 204 199 195 195 194 192 193 197 202 205 204 201 197 192 190 190 189 189 191 190 186 181 177 178 179 179 178 178 179 181 183 181 179 180 186 197 204 204 202 209 220 228 257 326 354 1 1 4 6 4 4 5 7 10 12 11 11 13 15 17 18 18 20 20 21 20 16 14 14 13 13 15 18 21 22 23 25 28 29 30 32 36 40
206 205 200 196 194 195 194 193 195 199 203 203 202 201 198 195 194 192 191 190 190 189 188 184 179 180 182 181 179 178 179 181 182 180 180 182 188 197 201 198 198 210 221 228 251 310 352 359 358 3 5 2 0 359 0 6 10 10 11 12 15 18 19 19 19 20 20 20 17 14 13 12 12 14 16 19 21 23 23 25 28 29 30 31 35
205 202 198 195 195 196 196 197 199 201 203 202 200 198 196 195 197 197 196 196 194 192 191 188 185 184 186 185 182 182 182 182 181 181 182 186 193 198 197 198 203 213 224 231 238 268 345 354 357 4 4 0 359 356 356 1 6 9 11 11 13 16 17 17 18 19 20 19 17 15 13 12 13 13 14 15 18 21 22 23 26 29 30 30 31
203 201 198 196 196 197 199 202 205 205 202 200 198 197 197 198 199 200 201 201 201 202 201 196 189 187 187 187 188 188 188 186 183 184 186 193 199 199 195 198 206 214 224 232 236 251 304 339 347 352 353 352 353 354 356 1 4 7 9 9 9 11 12 12 13 16 17 17 17 15 14 13 12 13 13 14 15 17 20 22 24 27 30 31 31
202 202 200 198 198 200 201 204 207 207 203 199 196 195 196 197 198 199 201 202 203 206 206 200 192 187 185 187 191 192 193 191 189 190 195 201 204 201 199 204 210 217 227 237 247 262 282 308 321 330 341 346 349 351 355 359 2 3 4 5 4 5 6 8 9 11 12 14 15 15 15 14 12 12 12 13 13 14 17 20 23 25 28 30 30
202 203 201 200 201 202 204 205 205 205 203 200 197 195 195 194 193 194 197 201 202 203 199 193 192 193 192 194 197 198 199 199 196 198 204 209 208 205 206 211 216 223 233 242 253 266 280 298 310 323 337 343 346 348 351 354 358 359 359 359 359 360 1 3 4 5 6 8 11 13 14 14 14 13 12 11 12 12 14 17 21 24 27 29 29
206 205 202 202 203 205 206 206 205 204 202 200 199 198 197 195 191 190 192 196 200 202 201 199 203 210 214 214 213 211 209 208 207 208 212 214 213 212 214 217 220 227 238 248 258 268 282 296 308 320 330 335 340 344 346 349 351 352 354 354 353 354 355 356 358 360 0 2 5 8 10 12 13 14 12 11 11 11 12 14 16 20 23 27 29
210 207 204 204 205 207 208 208 207 205 202 200 200 201 200 197 192 190 192 195 198 202 206 208 210 218 226 229 227 224 220 216 214 215 218 218 216 216 218 221 225 233 243 253 264 275 286 299 310 317 322 327 333 336 339 342 344 345 347 348 348 348 349 349 351 353 354 356 360 3 6 8 9 11 12 12 12 12 11 12 12 14 18 22 25
213 212 210 208 208 209 210 211 210 206 204 203 203 203 201 198 195 195 196 198 200 202 205 205 208 217 229 235 234 229 224 221 219 219 221 221 219 220 224 228 233 242 249 256 264 274 284 297 308 315 317 322 328 331 333 336 336 337 339 341 341 343 343 344 345 345 347 350 353 357 1 4 5 6 8 10 11 11 11 11 10 10 12 16 19
211 214 215 214 214 214 214 214 211 207 205 205 205 203 200 198 199 202 206 207 207 206 206 208 213 221 230 234 231 226 222 221 222 222 222 221 222 225 230 233 240 247 252 257 263 271 280 293 306 315 318 322 327 331 332 333 333 334 336 337 339 341 342 342 342 342 343 345 346 349 354 358 1 3 5 5 7 8 10 11 10 8 8 9 12
209 212 215 217 218 219 219 217 213 208 206 205 204 203 201 201 204 208 213 217 219 218 219 221 224 228 230 228 224 221 221 223 224 224 223 223 224 228 233 237 241 247 253 260 266 272 280 294 311 320 322 326 332 336 338 337 337 337 338 339 343 347 348 347 346 345 345 343 343 344 346 350 353 357 360 1 2 3 5 7 8 7 6 5 5
211 212 214 217 220 222 221 217 212 208 206 205 203 202 202 205 208 213 217 222 226 228 230 231 231 231 228 223 220 220 221 222 223 222 222 223 226 230 234 237 241 247 255 261 267 273 282 299 319 329 330 332 338 343 344 344 343 343 344 347 352 356 358 358 357 354 350 347 346 345 345 346 348 350 352 355 358 358 359 1 3 4 5 4 3
217 220 220 221 221 221 218 214 210 208 206 204 202 202 204 207 211 217 222 226 229 232 233 234 234 232 227 222 220 220 219 220 221 222 222 225 229 233 235 237 241 248 255 261 267 274 283 301 323 334 338 340 344 348 350 350 351 352 352 354 358 1 2 3 2 359 355 353 352 352 351 350 349 348 348 350 352 353 355 355 357 358 359 0 1
219 224 226 224 221 218 215 212 209 207 205 203 202 203 206 210 214 220 225 229 231 231 230 229 229 226 221 217 216 217 217 219 220 219 221 224 230 234 238 242 247 253 258 264 269 273 279 296 318 331 338 341 344 348 351 351 352 352 350 349 353 356 357 357 356 355 353 352 352 352 352 351 349 348 347 347 348 349 351 351 352 353 354 355 357
218 222 222 221 219 217 214 211 208 205 202 202 204 206 210 214 219 224 228 229 226 223 220 220 218 213 209 211 214 216 216 214 211 210 216 224 232 242 250 256 260 263 263 265 269 271 274 286 305 318 327 332 335 339 342 342 342 342 340 337 337 341 344 344 344 344 344 344 344 344 346 347 346 345 345 345 345 346 347 348 349 349 349 350 351
213 217 219 219 219 217 214 209 206 203 202 204 208 211 214 219 224 228 228 223 216 211 211 210 206 202 204 211 215 216 214 212 210 218 230 239 249 262 268 271 272 269 265 264 267 269 272 279 291 302 311 318 321 322 325 325 326 327 328 328 327 329 331 334 334 333 334 334 335 335 337 340 342 342 342 342 343 343 345 346 346 346 346 346 345
204 213 220 222 220 216 211 206 203 203 206 210 213 217 221 224 226 223 218 212 207 207 208 208 203 200 204 213 218 221 222 222 224 231 238 245 254 266 273 276 278 276 270 265 264 264 267 274 281 288 298 308 313 314 315 317 318 318 318 319 320 321 324 327 329 329 328 328 329 329 329 331 335 338 340 341 341 341 343 344 343 343 343 343 342
200 210 219 222 219 214 209 205 204 208 212 215 220 225 226 222 217 212 208 204 204 206 210 211 208 206 208 214 222 229 233 235 236 238 240 245 253 263 269 271 273 274 270 263 256 256 262 269 276 287 298 305 309 311 312 314 317 318 317 317 316 316 317 320 323 325 324 324 324 325 325 325 326 330 333 336 336 337 338 340 340 340 340 340 340
201 209 215 216 215 211 207 206 209 214 218 224 231 230 221 211 205 204 203 203 206 210 213 215 215 215 217 220 224 229 236 243 247 248 248 250 255 261 263 262 263 265 265 263 259 260 265 272 282 294 301 306 310 312 313 315 317 318 319 318 317 316 316 317 319 320 320 319 320 321 322 322 321 321 323 326 328 329 331 333 334 335 336 337 337
199 207 209 209 211 210 207 208 213 219 226 231 228 217 206 202 203 205 206 210 216 220 222 222 221 224 227 229 230 235 243 252 257 258 258 259 260 259 254 252 255 259 265 270 271 271 273 279 287 295 302 308 311 311 311 314 316 317 318 318 317 316 315 315 315 315 315 314 315 317 318 319 319 318 318 318 319 320 322 324 326 328 330 331 332
196 207 207 208 212 212 208 208 213 219 222 220 212 206 206 209 210 211 214 222 228 230 230 231 233 235 238 239 240 246 254 262 265 265 264 261 258 252 247 249 256 261 268 273 274 275 279 283 288 294 300 304 305 305 305 307 309 311 314 317 317 316 314 312 311 310 308 308 309 309 309 310 311 312 312 312 312 312 314 315 317 320 321 323 325
195 202 203 207 212 211 209 209 211 212 212 210 209 211 216 216 214 217 224 229 231 233 236 239 243 245 246 247 250 254 260 265 267 266 262 257 253 251 254 260 263 264 266 269 272 275 279 283 287 291 295 298 300 301 301 301 301 305 311 316 317 318 316 312 307 304 302 301 300 299 298 298 299 300 301 303 303 304 306 307 309 311 313 315 317
199 201 204 210 211 209 209 211 212 211 212 214 216 219 221 220 221 227 231 231 233 237 243 249 251 251 251 253 254 256 259 261 263 263 262 261 262 264 266 268 267 265 265 267 269 273 279 284 288 292 296 298 300 300 299 299 301 306 311 312 312 311 311 309 307 307 305 302 299 297 295 294 295 295 295 295 296 297 298 299 301 303 305 307 308
204 204 208 213 211 209 211 215 216 217 219 221 222 224 226 230 234 237 238 238 240 244 247 250 251 249 249 251 253 255 258 260 262 263 265 267 267 268 267 267 267 268 268 270 271 274 279 285 289 293 295 297 296 295 294 297 300 301 303 304 306 306 306 305 305 306 306 304 302 300 298 298 299 299 298 298 297 296 296 296 296 297 298 299 300
200 205 213 217 214 214 216 219 222 224 225 227 228 231 234 239 243 243 240 238 239 244 248 251 252 253 255 257 258 260 261 262 262 263 265 265 266 266 269 272 273 273 273 273 274 276 279 282 285 287 289 289 289 289 292 295 296 296 296 300 303 304 304 304 303 302 302 301 301 300 299 299 299 299 300 300 299 297 296 296 296 296 295 295 295
187 200 213 219 219 219 220 222 225 226 227 228 231 234 239 241 242 240 236 235 240 248 255 259 260 260 259 260 261 262 261 259 260 262 264 266 269 272 275 277 277 276 276 277 277 277 277 278 279 282 284 285 286 290 293 294 293 293 294 296 298 300 301 302 301 301 300 300 298 297 297 297 297 297 297 297 296 295 294 294 293 293 292 292 291